Station MLSC1 - Moss Landing, South Harbor, CA Image indicating link to RSS feed of recent meteorological observations for station MLSC1


Conditions at MLSC1 as of
(1:16 am PDT)
0816 GMT on 06/23/2024:
     

Click on the graph icon in the table below to see a time series plot of the last five days of that observation.

5-day plot - Wind Direction Wind Direction (WDIR): SE ( 140 deg true )
5-day plot - Wind Speed Wind Speed (WSPD): 2.9 kts
5-day plot - Atmospheric Pressure Atmospheric Pressure (PRES):29.90 in
5-day plot - Air Temperature Air Temperature (ATMP): 50.9 °F
5-day plot - Dew Point Dew Point (DEWP): 50.4 °F
5-day plot - Wind Chill Wind Chill (CHILL): 50.4 °F
5-day plot - Wind Speed at 10 Meters Wind Speed at 10 meters (WSPD10M): 3.9 kts
5-day plot - Wind Speed at 20 Meters Wind Speed at 20 meters (WSPD20M): 3.9 kts
5-day plot -  Wind Speed, Wind Gust and Atmospheric Pressure Combined plot of Wind Speed, Gust, and Air Pressure
Previous observations
TIME
(PDT)
5-day plot - Wind Direction
WDIR
 
5-day plot - Wind Speed
WSPD
kts
5-day plot - Wind Gust
GST
kts
5-day plot - Wave Height
WVHT
ft
5-day plot - Dominant Wave Period
DPD
sec
5-day plot - Average Wave Period
APD
sec
5-day plot - Mean Wave Direction
MWD
 
5-day plot - Atmospheric Pressure
PRES
in
5-day plot - Pressure Tendency
PTDY
in
5-day plot - Air Temperature
ATMP
°F
5-day plot - Water Temperature
WTMP
°F
5-day plot - Dew Point
DEWP
°F
5-day plot - Salinity
SAL
psu
5-day plot - Visibility
VIS
nmi
5-day plot - Tide (above MLLW)
TIDE
ft
2024-06-23 01:10 amESE 4.1-----29.90- 50.7- 50.4---
2024-06-23 01:00 amSSE 4.1-----29.90+0.01 50.7- 50.2---
2024-06-23 12:50 am S 2.9-----29.90- 50.7- 50.4---
2024-06-23 12:40 am- 0.0-----29.90- 50.5- 50.5---
2024-06-23 12:30 am SE 2.9-----29.90- 50.7- 50.2---
2024-06-23 12:20 am- 0.0-----29.89- 50.7- 50.7---
2024-06-23 12:10 am- 0.0-----29.90- 50.4- 50.2---
2024-06-23 12:00 am- 0.0-----29.90+0.03 50.5- 50.2---
2024-06-22 11:50 pm- 0.0-----29.90- 50.7- 50.2---
2024-06-22 11:40 pmWSW 2.9-----29.90- 51.1- 50.7---
2024-06-22 11:30 pm- 0.0-----29.90- 50.9- 50.5---
2024-06-22 11:20 pm- 0.0-----29.90- 50.7- 50.4---
2024-06-22 11:12 pmWNW 1.9-----29.89- 50.7- 50.2---
2024-06-22 11:11 pm W 2.9-----29.89- 50.7- 50.2---
2024-06-22 11:10 pm W 2.9-----29.89- 50.7- 50.4---
2024-06-22 11:01 pmWNW 2.9-----29.89- 50.7- 50.2---
2024-06-22 11:00 pmWNW 1.9-----29.89+0.03 50.7- 50.0---
2024-06-22 10:50 pm- 0.0-----29.89- 50.4- 49.8---
2024-06-22 10:41 pm- 0.0-----29.89- 50.4- 50.2---
2024-06-22 10:40 pm- 0.0-----29.89- 50.5- 50.2---
2024-06-22 10:30 pm SW 1.9-----29.89- 50.7- 50.2---
2024-06-22 10:20 pmWSW 2.9-----29.89- 50.7- 50.2---
2024-06-22 10:16 pm SW 1.0-----29.88- 50.9- 50.5---
2024-06-22 10:10 pm- 0.0-----29.88- 50.7- 50.4---
2024-06-22 10:01 pm SW 1.9-----29.88- 50.9- 50.4---
2024-06-22 10:00 pm SW 1.0-----29.88+0.03 51.1- 50.4---
2024-06-22 09:50 pm- 0.0-----29.88- 51.1- 50.5---
2024-06-22 09:46 pm SW 1.9-----29.88- 51.3- 50.5---
2024-06-22 09:40 pmWSW 2.9-----29.88- 51.3- 50.5---
2024-06-22 09:31 pm- 0.0-----29.88- 51.4- 50.7---
2024-06-22 09:30 pm- 0.0-----29.88- 51.4- 50.7---
2024-06-22 09:20 pm W 1.0-----29.87- 51.6- 50.9---
2024-06-22 09:16 pm- 0.0-----29.87- 51.4- 50.9---
2024-06-22 09:10 pm- 0.0-----29.87- 51.6- 51.1---
2024-06-22 09:01 pm- 0.0-----29.87- 51.6- 50.9---
2024-06-22 09:00 pmWSW 1.0-----29.87+0.02 51.6- 50.9---
2024-06-22 08:50 pmWSW 1.9-----29.87- 51.8- 51.1---
2024-06-22 08:46 pm- 0.0-----29.87- 51.8- 51.3---
2024-06-22 08:40 pmWNW 1.0-----29.87- 51.6- 51.1---
2024-06-22 08:31 pm W 2.9-----29.87- 51.4- 50.5---
2024-06-22 08:30 pm W 4.1-----29.86- 51.4- 50.4---
2024-06-22 08:20 pmSSW 1.9-----29.86- 51.4- 50.5---
2024-06-22 08:16 pm SW 2.9-----29.86- 51.4- 50.5---
2024-06-22 08:10 pmWSW 4.1-----29.86- 51.8- 51.1---
2024-06-22 08:01 pm- 0.0-----29.86- 51.6- 50.9---
2024-06-22 08:00 pm SW 1.0-----29.86+0.01 51.6- 50.7---
2024-06-22 07:50 pmWSW 4.1-----29.86- 51.8- 50.9---
2024-06-22 07:46 pmWSW 2.9-----29.86- 51.8- 50.9---
2024-06-22 07:40 pm SW 1.0-----29.86- 51.8- 50.9---
2024-06-22 07:31 pm W 1.9-----29.86- 51.8- 50.7---
2024-06-22 07:30 pm W 1.9-----29.86- 51.6- 50.5---
2024-06-22 07:20 pm W 1.0-----29.86- 51.3- 50.0---
2024-06-22 07:16 pm W 4.1-----29.86- 51.3- 50.0---
2024-06-22 07:10 pmWSW 4.1-----29.85- 51.8- 50.4---
2024-06-22 07:01 pm W 2.9-----29.85- 52.0- 50.7---
2024-06-22 07:00 pm W 4.1-----29.85-0.01 52.2- 50.9---
2024-06-22 06:50 pmWSW 2.9-----29.85- 52.3- 50.7---
2024-06-22 06:46 pmWSW 4.1-----29.85- 52.3- 50.7---
2024-06-22 06:40 pm SW 4.1-----29.85- 52.3- 50.9---
2024-06-22 06:31 pm SW 5.1-----29.85- 52.3- 50.5---
2024-06-22 06:30 pm SW 5.1-----29.85- 52.3- 50.7---
2024-06-22 06:20 pmSSW 4.1-----29.85- 52.7- 50.9---
2024-06-22 06:16 pmWSW 4.1-----29.85- 52.5- 50.7---
2024-06-22 06:10 pmWSW 6.0-----29.85- 52.9- 51.1---
2024-06-22 06:01 pm W 4.1-----29.85- 52.9- 50.9---
2024-06-22 06:00 pmWSW 4.1-----29.85-0.02 53.1- 51.1---
2024-06-22 05:50 pmWSW 1.9-----29.85- 52.3- 50.2---
2024-06-22 05:46 pm W 4.1-----29.85- 52.9- 50.7---
2024-06-22 05:40 pmWSW 2.9-----29.85- 53.2- 50.9---
2024-06-22 05:31 pm W 4.1-----29.85- 53.8- 51.6---
2024-06-22 05:30 pmWSW 5.1-----29.85- 54.1- 51.8---
2024-06-22 05:20 pm W 4.1-----29.85- 53.2- 51.1---
2024-06-22 05:16 pm W 2.9-----29.85- 52.9- 50.9---
2024-06-22 05:10 pmWSW 2.9-----29.85- 52.9- 50.7---
2024-06-22 05:00 pmWSW 4.1-----29.85-0.01 53.4- 50.9---
2024-06-22 04:56 pmWSW 4.1-----29.85- 54.5- 52.0---
2024-06-22 04:50 pmWSW 4.1-----29.85- 53.8- 51.4---
2024-06-22 04:46 pm W 5.1-----29.85- 54.5- 52.2---
2024-06-22 04:40 pmWSW 5.1-----29.86- 54.3- 52.2---
2024-06-22 04:31 pm W 4.1-----29.86- 54.9- 52.7---
2024-06-22 04:30 pm W 4.1-----29.86- 54.3- 52.2---
2024-06-22 04:20 pm W 4.1-----29.86- 54.1- 51.6---
2024-06-22 04:16 pm W 4.1-----29.86- 54.0- 51.8---
2024-06-22 04:10 pmWNW 5.1-----29.86- 54.5- 52.3---
2024-06-22 04:01 pm W 5.1-----29.86- 54.0- 51.3---
2024-06-22 04:00 pm W 7.0-----29.86+0.00 54.7- 52.2---
2024-06-22 03:50 pm W 6.0-----29.86- 54.5- 52.0---
2024-06-22 03:46 pm W 8.0-----29.86- 54.7- 52.2---
2024-06-22 03:40 pm W 7.0-----29.86- 54.9- 52.9---
2024-06-22 03:31 pm W 7.0-----29.86- 54.3- 51.6---
2024-06-22 03:30 pm W 8.0-----29.86- 54.7- 52.3---
2024-06-22 03:20 pm W 8.0-----29.87- 54.7- 52.3---
2024-06-22 03:10 pm W 9.9-----29.87- 54.7- 52.2---
2024-06-22 03:06 pm W 8.9-----29.87- 54.1- 52.3---
2024-06-22 03:01 pm W 8.9-----29.87- 54.5- 52.0---
2024-06-22 03:00 pm W 8.0-----29.87+0.00 54.1- 52.0---
2024-06-22 02:50 pm W 8.0-----29.87- 54.7- 52.3---
2024-06-22 02:46 pm W 7.0-----29.87- 54.7- 52.7---
2024-06-22 02:40 pm W 8.0-----29.87- 54.0- 52.0---
2024-06-22 02:31 pm W 7.0-----29.87- 54.5- 52.7---
2024-06-22 02:30 pm W 7.0-----29.87- 54.0- 51.8---
2024-06-22 02:20 pm W 7.0-----29.87- 54.1- 52.0---
2024-06-22 02:11 pm W 6.0-----29.86- 54.1- 52.0---
2024-06-22 02:10 pm W 8.9-----29.86- 53.8- 51.4---
2024-06-22 02:00 pm W 8.9-----29.87+0.01 54.5- 52.2---
2024-06-22 01:50 pm W 7.0-----29.86- 54.0- 52.7---
2024-06-22 01:46 pm W 8.0-----29.86- 54.9- 52.7---
2024-06-22 01:40 pm W 8.0-----29.86- 54.1- 52.5---
2024-06-22 01:30 pm W 7.0-----29.86- 54.1- 51.4---
2024-06-22 01:20 pm W 7.0-----29.86- 54.0- 51.6---
2024-06-22 01:10 pm W 7.0-----29.86- 53.8- 51.6---
2024-06-22 01:00 pm W 6.0-----29.86+0.02 53.6- 52.0---
2024-06-22 12:50 pm W 5.1-----29.86- 53.1- 51.3---
2024-06-22 12:40 pm W 6.0-----29.86- 52.7- 50.5---
2024-06-22 12:36 pm W 7.0-----29.86- 53.2- 51.4---
2024-06-22 12:30 pm W 6.0-----29.86- 53.1- 50.5---
2024-06-22 12:20 pmWSW 6.0-----29.86- 53.1- 51.4---
2024-06-22 12:10 pm W 7.0-----29.86- 52.9- 50.7---
2024-06-22 12:02 pm W 6.0-----29.86- 53.1- 51.1---
2024-06-22 12:01 pm W 7.0-----29.86- 53.2- 51.3---
2024-06-22 12:00 pm W 7.0-----29.86+0.02 53.2- 52.3---
2024-06-22 11:50 am W 8.0-----29.86- 53.6- 52.7---
2024-06-22 11:46 am W 7.0-----29.86- 52.5- 51.3---
2024-06-22 11:40 am W 6.0-----29.86- 53.8- 52.3---
2024-06-22 11:31 am W 7.0-----29.85- 52.9- 51.4---
2024-06-22 11:30 am W 8.0-----29.85- 53.6- 52.2---
2024-06-22 11:20 am W 8.0-----29.85- 52.3- 51.1---
2024-06-22 11:16 am W 8.0-----29.85- 52.7- 51.1---
2024-06-22 11:10 am W 8.0-----29.85- 53.2- 52.0---
2024-06-22 11:01 am W 6.0-----29.85- 53.1- 51.8---
2024-06-22 11:00 am W 6.0-----29.85+0.01 52.0- 51.1---
2024-06-22 10:50 am W 6.0-----29.85- 52.5- 51.4---
2024-06-22 10:41 am W 5.1-----29.85- 51.8- 50.5---
2024-06-22 10:40 am W 7.0-----29.85- 52.5- 51.8---
2024-06-22 10:30 am W 5.1-----29.85- 53.1- 52.5---
2024-06-22 10:20 am W 5.1-----29.85- 52.0- 51.4---
2024-06-22 10:10 am W 5.1-----29.85- 51.8- 51.6---
2024-06-22 10:00 am W 5.1-----29.85+0.01 52.2- 51.8---
2024-06-22 09:56 am W 4.1-----29.85- 52.7- 52.3---
2024-06-22 09:50 am W 4.1-----29.84- 52.9- 52.2---
2024-06-22 09:46 am W 4.1-----29.84- 52.5- 52.0---
2024-06-22 09:40 am W 5.1-----29.84- 52.2- 51.6---
2024-06-22 09:31 amWNW 4.1-----29.84- 52.0- 51.6---
2024-06-22 09:30 amWNW 4.1-----29.84- 52.0- 51.6---
2024-06-22 09:20 amWNW 5.1-----29.84- 51.8- 51.3---
2024-06-22 09:11 amWNW 5.1-----29.84- 52.3- 52.2---
2024-06-22 09:10 am W 4.1-----29.84- 52.0- 51.4---
2024-06-22 09:00 amWNW 4.1-----29.84+0.02 51.8- 51.6---
2024-06-22 08:50 amWNW 5.1-----29.84- 51.6- 51.3---
2024-06-22 08:46 amWNW 4.1-----29.84- 51.6- 51.3---
2024-06-22 08:40 am NW 4.1-----29.84- 51.6- 51.3---
2024-06-22 08:31 amWNW 4.1-----29.84- 51.3- 50.9---
2024-06-22 08:30 amWNW 4.1-----29.84- 51.3- 50.9---
2024-06-22 08:20 amWNW 4.1-----29.84- 51.3- 51.1---
2024-06-22 08:16 amWNW 4.1-----29.84- 50.9- 50.5---
2024-06-22 08:10 am NW 4.1-----29.84- 51.3- 51.1---
2024-06-22 08:01 am NW 1.9-----29.84- 51.3- 50.9---
2024-06-22 08:00 am NW 2.9-----29.84+0.02 51.3- 51.3---
2024-06-22 07:50 amNNE 1.9-----29.84- 51.3- 51.1---
2024-06-22 07:46 am NE 1.9-----29.84- 51.1- 50.7---
2024-06-22 07:40 am NE 1.9-----29.84- 50.9- 50.7---
2024-06-22 07:31 am- 0.0-----29.83- 51.1- 50.9---
2024-06-22 07:30 am- 0.0-----29.83- 51.1- 50.7---
2024-06-22 07:20 amENE 2.9-----29.83- 50.9- 50.7---
2024-06-22 07:16 amENE 2.9-----29.83- 51.1- 50.9---
2024-06-22 07:10 am- 0.0-----29.83- 51.1- 51.1---
2024-06-22 07:01 am- 0.0-----29.83- 51.1- 50.9---
2024-06-22 07:00 am E 1.9-----29.83+0.01 50.9- 50.7---
2024-06-22 06:50 am E 1.9-----29.83- 50.9- 50.9---
2024-06-22 06:46 am- 0.0-----29.83- 50.9- 50.9---
2024-06-22 06:40 am E 1.9-----29.83- 51.1- 50.9---
2024-06-22 06:31 am- 0.0-----29.82- 50.9- 50.7---
2024-06-22 06:30 am NE 1.0-----29.83- 50.7- 50.7---
2024-06-22 06:20 am E 1.9-----29.82- 50.5- 50.5---
2024-06-22 06:16 amENE 1.0-----29.82- 50.5- 50.5---
2024-06-22 06:10 amENE 2.9-----29.82- 50.2- 50.2---
2024-06-22 06:01 amENE 2.9-----29.82- 50.0- 49.8---
2024-06-22 06:00 am- 0.0-----29.82-0.01 49.8- 49.6---
2024-06-22 05:50 am E 2.9-----29.82- 49.8- 49.5---
2024-06-22 05:46 am NE 2.9-----29.82- 50.2- 50.2---
2024-06-22 05:40 am E 1.9-----29.82- 50.0- 49.8---
2024-06-22 05:31 amESE 1.9-----29.82- 50.0- 49.8---
2024-06-22 05:30 amESE 1.9-----29.82- 50.0- 49.8---
2024-06-22 05:20 amESE 1.9-----29.82- 50.0- 49.8---
2024-06-22 05:16 am E 4.1-----29.82- 50.4- 50.2---
2024-06-22 05:10 am NE 2.9-----29.82- 50.2- 50.0---
2024-06-22 05:01 am E 1.9-----29.82- 50.7- 50.5---
2024-06-22 05:00 am E 2.9-----29.82-0.02 50.5- 50.2---
2024-06-22 04:50 amESE 4.1-----29.82- 50.5- 50.4---
2024-06-22 04:46 am E 2.9-----29.82- 50.7- 50.4---
2024-06-22 04:40 amENE 1.0-----29.82- 50.5- 50.2---
2024-06-22 04:31 am NE 2.9-----29.82- 51.1- 50.9---
2024-06-22 04:30 am NE 1.9-----29.82- 50.9- 50.7---
2024-06-22 04:20 amENE 1.9-----29.82- 50.9- 50.7---
2024-06-22 04:16 am- 0.0-----29.82- 50.7- 50.4---
2024-06-22 04:10 amENE 4.1-----29.82- 50.9- 50.7---
2024-06-22 04:01 amENE 2.9-----29.82- 50.7- 50.5---
2024-06-22 04:00 am- 0.0-----29.82-0.02 50.7- 50.4---
2024-06-22 03:50 amESE 1.0-----29.82- 50.5- 50.4---
2024-06-22 03:46 am E 1.9-----29.82- 50.7- 50.4---
2024-06-22 03:40 am SE 4.1-----29.82- 50.5- 50.4---
2024-06-22 03:31 am E 2.9-----29.82- 50.9- 50.7---
2024-06-22 03:30 am E 2.9-----29.82- 50.7- 50.4---
2024-06-22 03:20 am- 0.0-----29.82- 50.5- 50.4---
2024-06-22 03:16 amESE 2.9-----29.82- 50.7- 50.5---
2024-06-22 03:10 amESE 1.0-----29.82- 50.5- 50.4---
2024-06-22 03:01 am SE 4.1-----29.83- 50.7- 50.4---
2024-06-22 03:00 am SE 2.9-----29.83- 50.5- 50.2---
2024-06-22 02:50 amESE 1.9-----29.83- 50.5- 50.4---
2024-06-22 02:41 am SE 2.9-----29.83- 50.2- 50.0---
2024-06-22 02:40 am SE 2.9-----29.83- 50.2- 49.8---
2024-06-22 02:31 amSSE 2.9-----29.83- 50.4- 50.0---
2024-06-22 02:30 am SE 4.1-----29.83- 50.4- 50.0---
2024-06-22 02:20 am SE 2.9-----29.83- 50.4- 50.2---
2024-06-22 02:10 amSSE 5.1-----29.83- 50.4- 49.8---
2024-06-22 02:02 am S 5.1-----29.84- 50.5- 50.0---
2024-06-22 02:01 am S 5.1-----29.84- 50.4- 50.0---
2024-06-22 02:00 amSSE 4.1-----29.84-0.01 50.4- 49.8---
2024-06-22 01:50 amSSE 5.1-----29.84- 50.2- 49.6---
2024-06-22 01:41 am S 5.1-----29.84- 50.5- 50.0---
2024-06-22 01:40 am S 5.1-----29.84- 50.5- 50.2---
2024-06-22 01:31 am S 5.1-----29.84- 50.7- 50.4---
2024-06-22 01:30 am S 4.1-----29.84- 50.5- 50.2---
2024-06-22 01:20 amESE 4.1-----29.84- 50.7- 50.4---
2024-06-22 01:10 am SE 4.1-----29.84- 51.1- 50.7---
2024-06-22 01:02 amESE 5.1-----29.84- 50.9- 50.4---
2024-06-22 01:01 amESE 6.0-----29.84- 50.9- 50.4---
2024-06-22 01:00 amESE 6.0-----29.84+0.00 50.9- 50.4---